Wind_Speed
7 3 7 12 9 5 3 5 7 4 2 1 3 2 9 17 14 13 19 22 30 37 35 36 35 32 32 31 29 27 24 25 24 22 21 21 22 21 18 16 16 13 12 10
2 7 12 4 7 6 5 2 5 2 3 1 7 2 8 16 15 21 23 25 31 30 33 36 37 37 33 32 31 29 29 27 26 26 25 23 21 20 20 19 19 18 16 14
6 9 3 4 5 4 3 5 5 4 2 1 3 7 5 9 10 17 22 29 33 36 37 38 39 41 38 38 35 33 31 29 29 29 27 27 26 25 24 24 22 22 19 17
6 5 3 4 5 6 2 7 5 9 5 2 3 4 4 4 11 14 25 29 33 37 38 37 40 41 43 41 37 35 34 34 34 32 32 30 30 28 24 23 21 21 21 18
7 2 5 4 5 4 8 6 8 4 4 3 1 2 6 4 7 11 19 31 34 36 39 39 42 43 43 43 42 41 40 39 35 35 34 33 33 32 25 23 25 24 22 21
8 5 3 6 2 5 6 6 7 6 3 4 2 3 6 1 5 2 14 23 31 36 36 41 41 40 43 42 44 44 43 42 41 39 37 37 37 32 29 27 27 26 22 21
7 4 3 4 1 3 7 6 3 4 2 5 4 4 8 9 4 4 9 20 27 32 37 41 42 45 45 46 44 44 42 41 41 41 40 38 38 35 30 27 25 24 22 20
2 7 4 5 3 3 4 5 5 1 2 2 3 3 5 6 6 5 5 3 5 12 23 38 43 44 43 49 44 43 43 38 38 38 36 37 37 35 33 29 25 23 21 19
2 4 6 1 3 2 1 5 4 7 3 2 3 5 5 6 8 7 6 2 3 6 6 9 24 36 38 39 46 43 41 39 36 34 35 35 37 36 34 30 27 22 20 18
4 2 2 6 3 6 1 5 4 4 1 1 4 3 4 3 3 1 5 8 4 9 10 4 10 20 32 31 33 38 39 38 33 33 31 33 34 34 33 31 27 25 22 20
4 3 6 3 5 3 5 3 6 5 3 4 1 5 6 6 6 5 6 1 9 11 12 9 6 16 24 22 22 27 30 30 33 27 30 31 32 33 33 29 28 26 22 20
2 4 1 1 2 2 2 3 4 5 2 2 3 5 3 5 1 5 9 7 8 12 11 9 5 6 14 18 23 24 27 27 19 20 24 28 32 33 33 32 30 25 24 24
4 3 3 7 7 5 6 3 5 4 3 3 4 5 0 3 5 4 3 1 4 8 4 4 2 6 12 16 17 14 15 22 24 19 22 26 29 33 34 33 33 34 31 29
5 3 6 5 6 3 2 3 3 4 3 4 5 5 4 6 7 11 7 6 5 6 7 6 6 9 13 17 22 15 13 15 15 18 21 21 24 29 31 32 33 33 33 33
4 4 4 5 4 2 3 5 4 6 5 6 4 7 5 6 7 13 12 9 8 7 6 8 10 13 16 18 17 18 21 17 22 22 20 25 23 24 34 34 33 32 28 25
2 2 4 2 1 2 4 7 7 6 4 2 4 4 2 7 2 4 2 9 9 6 5 5 7 10 13 15 17 14 13 16 14 18 25 26 33 29 27 32 37 40 35 22
3 6 3 5 3 5 4 5 4 4 3 6 5 5 2 2 8 11 9 9 8 7 6 6 5 7 10 11 12 9 6 8 13 18 20 23 24 25 27 31 28 36 32 35
7 6 3 4 2 3 7 6 4 5 4 3 7 6 5 7 11 11 11 14 12 10 7 4 3 5 8 9 8 7 13 7 5 4 6 7 10 16 22 28 30 31 37 35
4 5 3 4 5 4 2 4 6 5 2 0 8 7 14 14 13 9 8 7 7 5 2 4 6 7 7 7 6 9 13 12 9 8 12 11 7 8 13 16 20 27 33 37
6 5 4 3 4 7 8 6 12 8 0 9 10 13 12 8 2 4 7 7 5 1 3 7 8 9 9 9 9 11 12 14 16 16 15 13 12 14 16 18 19 26 20 16
2 2 6 3 4 7 6 5 12 5 8 27 28 26 17 5 6 14 13 9 6 4 5 7 9 9 10 11 11 12 14 16 19 21 20 15 11 15 16 18 18 20 19 25
7 5 4 2 2 6 10 7 7 8 8 35 27 27 25 16 17 17 13 9 7 6 5 5 6 6 8 13 15 15 15 16 18 20 22 20 18 19 18 17 17 18 23 32
2 7 5 8 6 4 6 6 16 15 26 31 27 22 20 23 22 19 14 10 7 7 5 5 6 9 12 15 19 21 22 22 21 22 26 28 25 19 17 20 17 19 20 24
3 5 4 2 3 4 4 9 16 19 28 31 27 24 24 22 21 18 15 13 11 10 8 7 8 13 17 21 23 23 26 28 29 27 27 28 31 31 24 19 21 21 24 23
4 7 6 3 5 3 3 9 18 20 28 26 24 24 22 20 18 14 13 15 14 10 8 9 12 16 20 22 24 26 28 28 28 27 25 25 27 29 31 29 23 21 20 25
5 6 4 5 9 4 4 13 16 23 26 27 27 26 22 17 12 11 12 12 10 9 8 9 12 15 20 24 24 22 23 25 24 24 25 24 24 23 25 29 30 28 27 25
Wind_Direction
188 131 223 238 209 237 211 213 237 238 327 29 203 52 175 174 180 182 187 200 206 211 210 211 211 213 214 214 218 221 226 225 222 224 225 228 235 227 227 227 225 228 227 227
356 239 243 206 241 234 224 195 250 338 103 204 349 220 172 178 203 191 194 204 216 219 219 222 220 216 214 217 222 225 224 225 227 232 234 237 243 239 235 235 237 238 233 233
180 243 315 312 281 173 215 170 208 207 73 14 33 305 166 199 201 195 206 218 219 220 218 218 221 220 221 221 222 225 228 230 233 237 238 241 245 246 239 234 234 235 241 239
236 274 233 288 258 136 296 190 160 141 122 212 62 271 315 189 192 198 209 213 223 227 226 224 223 224 223 226 225 227 231 235 238 238 237 239 241 243 242 238 238 240 245 246
256 244 234 247 233 158 228 122 152 158 90 88 296 41 268 120 212 213 207 214 219 231 230 226 225 222 222 225 228 230 231 235 238 240 242 245 245 247 249 247 241 244 246 246
251 256 238 209 273 196 116 83 48 54 64 0 357 141 297 149 264 171 211 216 216 226 231 231 232 227 226 225 231 235 236 239 240 242 245 247 246 242 245 246 246 246 248 249
333 281 277 210 271 358 64 63 4 37 37 219 302 104 258 298 278 221 174 214 230 239 237 233 229 228 227 226 226 231 236 239 243 246 246 248 245 242 244 247 249 251 248 256
32 350 11 346 226 189 61 137 144 184 162 272 351 267 280 317 312 131 132 155 196 235 247 242 240 231 230 227 226 229 236 237 243 247 252 249 245 244 246 248 251 257 252 258
124 283 311 239 330 54 153 43 166 104 20 75 276 291 322 343 30 55 60 56 323 359 320 257 239 232 230 232 230 229 236 240 243 248 251 253 248 245 247 250 250 254 252 257
184 340 325 296 45 31 115 151 40 14 104 79 312 285 233 280 168 279 260 248 3 28 19 341 263 238 228 235 236 234 238 243 248 249 250 254 254 248 249 253 251 252 251 255
116 143 290 13 27 323 16 42 52 109 100 146 120 274 219 210 216 231 267 20 38 38 31 22 294 243 239 240 240 239 238 244 249 253 252 255 254 251 251 255 253 250 248 249
182 130 196 212 358 291 4 109 107 112 223 83 130 281 261 250 321 357 307 50 55 51 36 31 343 240 225 229 236 238 244 243 248 258 260 263 261 254 255 256 256 250 248 245
184 34 18 353 0 355 48 16 110 104 85 185 128 264 316 37 51 10 256 175 85 78 75 55 281 201 200 211 220 225 251 245 252 261 264 259 255 254 255 260 263 264 262 258
98 109 148 176 203 182 30 9 91 106 106 180 221 282 301 354 330 309 261 209 158 141 148 178 205 218 220 223 223 258 303 297 270 260 251 254 258 255 258 264 265 266 269 276
104 150 176 232 222 189 216 226 193 199 194 160 260 208 277 300 297 296 263 206 190 180 175 202 223 233 240 248 255 277 286 276 273 255 256 255 255 263 252 254 261 257 255 260
20 187 166 270 178 218 261 253 236 226 129 263 167 245 290 335 16 36 183 175 191 196 228 221 251 267 269 273 280 291 283 286 285 271 264 260 264 267 263 260 257 252 248 266
131 134 107 248 353 5 334 246 219 197 173 155 172 208 66 34 54 55 94 152 140 99 81 61 28 346 320 311 308 310 307 278 261 263 267 267 267 259 264 257 257 262 266 265
149 133 134 200 57 249 244 286 204 116 20 147 113 123 133 107 92 90 107 125 121 98 84 74 14 16 11 15 8 351 329 320 304 334 332 316 309 290 273 262 266 267 257 265
156 125 154 158 185 275 22 200 166 146 352 37 141 150 142 125 91 67 105 124 140 117 43 20 7 360 10 9 5 354 347 348 339 343 342 332 333 305 278 268 275 267 258 264
78 79 125 135 166 202 231 208 161 119 301 218 197 171 163 157 114 243 150 132 142 167 324 325 330 337 339 336 330 326 337 331 329 328 331 307 308 296 290 285 271 274 266 230
37 40 173 175 223 282 246 164 143 110 233 180 188 183 181 183 199 166 160 167 181 218 276 300 314 320 321 317 321 325 330 327 331 330 333 329 303 288 291 284 276 257 250 209
174 164 199 116 138 265 165 118 159 204 163 178 192 202 206 209 161 166 174 184 199 226 234 261 291 311 325 329 331 332 327 322 315 314 320 322 318 303 284 285 284 283 262 245
211 187 187 175 213 235 238 260 223 177 166 175 179 185 186 168 172 178 187 201 219 220 233 244 268 295 313 320 320 317 317 315 309 301 301 308 311 314 297 277 285 284 281 274
238 166 160 81 265 257 286 228 188 178 176 176 181 177 180 176 178 186 193 201 216 221 222 244 278 299 306 310 314 317 319 315 310 306 302 295 295 296 293 287 283 279 274 275
203 143 157 249 273 277 215 182 172 172 167 171 179 181 182 183 186 195 198 198 200 204 230 269 294 305 313 315 313 313 312 313 311 312 312 305 293 289 291 289 284 280 273 265
190 181 153 214 214 160 209 194 189 179 178 178 173 177 183 192 197 199 197 195 208 234 257 279 296 304 309 310 315 321 320 320 321 322 323 317 310 301 292 293 291 287 282 278
Height
1504 1512 1515 1501 1500 1496 1499 1503 1500 1490 1484 1487 1492 1496 1499 1500 1504 1509 1509 1514 1514 1516 1523 1527 1530 1533 1536 1539 1542 1544 1547 1550 1553 1556 1557 1559 1559 1561 1564 1567 1569 1570 1570 1571
1507 1511 1492 1492 1492 1494 1498 1502 1501 1492 1489 1490 1491 1494 1494 1497 1497 1500 1505 1509 1512 1517 1520 1523 1527 1530 1531 1534 1537 1540 1543 1547 1550 1553 1555 1557 1558 1560 1562 1564 1566 1568 1569 1570
1506 1492 1486 1489 1490 1495 1495 1498 1499 1494 1494 1491 1494 1495 1495 1494 1495 1499 1502 1504 1507 1509 1511 1515 1520 1525 1528 1529 1531 1535 1538 1541 1545 1549 1552 1554 1556 1558 1559 1560 1562 1564 1567 1568
1497 1485 1486 1489 1488 1487 1495 1482 1485 1494 1501 1514 1497 1524 1494 1492 1492 1494 1496 1497 1500 1503 1506 1511 1514 1518 1521 1524 1528 1530 1534 1537 1541 1544 1547 1549 1551 1553 1554 1557 1560 1562 1564 1565
1493 1485 1486 1487 1482 1481 1489 1480 1487 1493 1505 1508 1509 1519 1499 1493 1496 1489 1488 1489 1492 1495 1499 1502 1505 1508 1512 1518 1521 1525 1528 1532 1537 1539 1542 1545 1548 1549 1552 1554 1557 1559 1561 1563
1487 1480 1478 1478 1473 1475 1478 1486 1498 1506 1515 1531 1516 1517 1508 1493 1488 1482 1482 1484 1486 1487 1492 1496 1498 1504 1507 1512 1516 1520 1523 1526 1530 1534 1538 1541 1543 1546 1550 1552 1554 1556 1557 1559
1490 1480 1475 1473 1477 1474 1480 1499 1528 1529 1537 1539 1521 1520 1502 1484 1477 1475 1477 1478 1479 1479 1481 1484 1488 1493 1499 1503 1507 1512 1517 1521 1524 1528 1532 1536 1539 1543 1546 1550 1552 1554 1554 1555
1511 1509 1478 1471 1474 1478 1485 1497 1524 1525 1541 1532 1517 1521 1497 1480 1476 1473 1475 1476 1478 1479 1476 1476 1478 1484 1487 1492 1499 1506 1510 1514 1518 1522 1526 1530 1535 1539 1543 1546 1549 1552 1553 1553
1508 1500 1476 1474 1472 1474 1486 1504 1497 1528 1532 1532 1527 1505 1485 1482 1478 1477 1476 1476 1477 1475 1473 1472 1474 1476 1481 1487 1493 1498 1503 1507 1512 1517 1522 1526 1531 1535 1539 1543 1546 1548 1551 1552
1491 1505 1482 1477 1475 1477 1477 1488 1508 1521 1527 1529 1528 1518 1511 1490 1485 1483 1482 1481 1478 1474 1473 1473 1474 1476 1479 1484 1488 1495 1499 1504 1508 1513 1518 1522 1526 1531 1535 1539 1542 1545 1547 1550
1489 1498 1495 1483 1489 1494 1493 1498 1514 1520 1532 1540 1543 1522 1490 1487 1483 1483 1482 1480 1476 1476 1476 1475 1476 1478 1480 1484 1488 1491 1496 1501 1506 1510 1514 1518 1522 1526 1531 1534 1538 1541 1543 1546
1488 1501 1509 1493 1488 1489 1488 1496 1507 1524 1523 1544 1539 1521 1481 1481 1482 1483 1482 1476 1478 1478 1479 1478 1479 1480 1483 1487 1490 1494 1498 1502 1505 1508 1511 1515 1520 1524 1527 1530 1533 1536 1539 1542
1484 1508 1526 1514 1502 1492 1497 1496 1508 1515 1522 1530 1534 1520 1482 1481 1482 1481 1480 1480 1480 1480 1482 1482 1482 1483 1486 1488 1491 1495 1497 1497 1499 1503 1505 1506 1510 1516 1521 1525 1530 1533 1536 1537
1482 1509 1513 1529 1513 1504 1500 1496 1500 1507 1525 1526 1523 1502 1483 1485 1484 1480 1480 1481 1482 1483 1484 1485 1486 1486 1487 1490 1493 1495 1497 1496 1497 1497 1498 1500 1502 1507 1514 1517 1520 1523 1526 1530
1485 1502 1504 1500 1500 1499 1497 1496 1495 1500 1501 1510 1502 1505 1489 1488 1485 1480 1479 1482 1484 1484 1486 1487 1487 1488 1489 1490 1494 1496 1497 1498 1498 1497 1496 1497 1496 1499 1502 1506 1510 1515 1516 1518
1487 1502 1501 1498 1496 1497 1499 1493 1495 1493 1497 1498 1499 1497 1488 1486 1483 1480 1478 1482 1484 1485 1487 1489 1489 1489 1490 1492 1495 1495 1496 1494 1494 1494 1493 1493 1493 1494 1496 1497 1500 1505 1506 1506
1489 1502 1511 1513 1502 1499 1507 1489 1484 1481 1485 1490 1500 1490 1488 1488 1485 1483 1482 1483 1485 1487 1488 1489 1490 1490 1490 1491 1491 1493 1495 1494 1495 1495 1493 1494 1493 1491 1491 1492 1492 1493 1496 1491
1492 1498 1508 1514 1506 1521 1492 1481 1479 1484 1487 1485 1484 1485 1487 1486 1487 1487 1486 1485 1487 1489 1491 1491 1491 1491 1490 1489 1489 1491 1493 1494 1495 1493 1493 1493 1491 1489 1487 1488 1489 1488 1486 1481
1481 1496 1509 1515 1519 1502 1489 1481 1480 1482 1491 1485 1484 1485 1486 1486 1488 1488 1486 1487 1488 1490 1491 1491 1490 1489 1489 1488 1488 1489 1488 1488 1489 1488 1487 1486 1485 1485 1484 1484 1483 1482 1482 1478
1484 1488 1497 1518 1510 1513 1481 1466 1468 1471 1504 1483 1481 1481 1482 1485 1493 1490 1487 1487 1488 1489 1490 1489 1489 1489 1488 1488 1487 1486 1485 1484 1484 1483 1483 1480 1478 1479 1479 1479 1478 1477 1476 1474
1491 1497 1501 1511 1503 1490 1466 1463 1468 1493 1490 1472 1476 1476 1479 1482 1482 1484 1486 1486 1488 1489 1489 1489 1488 1488 1487 1485 1485 1484 1483 1482 1481 1479 1477 1476 1475 1474 1473 1474 1475 1475 1475 1471
1484 1494 1499 1505 1499 1493 1460 1467 1474 1463 1459 1463 1471 1474 1477 1479 1481 1483 1485 1487 1488 1488 1488 1488 1488 1486 1485 1483 1482 1481 1481 1480 1479 1476 1473 1471 1469 1468 1468 1467 1466 1467 1470 1470
1481 1472 1478 1480 1477 1458 1459 1457 1455 1455 1455 1463 1468 1472 1474 1477 1480 1482 1485 1486 1487 1487 1487 1487 1486 1484 1483 1481 1479 1478 1477 1476 1475 1474 1471 1467 1466 1464 1463 1462 1461 1462 1461 1461
1460 1460 1466 1467 1458 1455 1453 1453 1453 1454 1455 1461 1467 1471 1474 1476 1479 1481 1483 1484 1485 1485 1485 1484 1483 1482 1481 1479 1477 1474 1472 1470 1467 1467 1465 1463 1459 1457 1458 1458 1457 1456 1455 1455
1456 1456 1461 1463 1456 1454 1452 1452 1454 1456 1460 1463 1468 1471 1474 1477 1479 1480 1481 1482 1483 1483 1483 1482 1481 1479 1477 1475 1473 1471 1466 1461 1460 1458 1456 1455 1452 1450 1447 1446 1448 1447 1447 1446
1450 1451 1458 1461 1448 1451 1452 1454 1455 1457 1459 1462 1465 1470 1474 1476 1477 1478 1480 1480 1481 1481 1481 1481 1480 1478 1475 1471 1468 1464 1461 1458 1456 1450 1449 1447 1445 1444 1440 1437 1434 1434 1436 1437